owner,sensor,date,latitude,longitude,vertical_datum,sea_water_practical_salinity,qcFlag 
NERRS,ioos:station:NOAA.NERRS:gndblwq:1,2014-02-01T00:00:00Z,30.3571,-88.4629,0.44,24.9,1111122 
NERRS,ioos:station:NOAA.NERRS:gndblwq:1,2014-02-01T01:00:00Z,30.3571,-88.4629,0.51,25.2,1111122 
NERRS,ioos:station:NOAA.NERRS:gndblwq:1,2014-02-01T02:00:00Z,30.3571,-88.4629,0.58,25.8,1111122 
NERRS,ioos:station:NOAA.NERRS:gndblwq:1,2014-02-01T03:00:00Z,30.3571,-88.4629,0.63,26.2,1111122 
NERRS,ioos:station:NOAA.NERRS:gndblwq:1,2014-02-01T04:00:00Z,30.3571,-88.4629,0.66,26.7,1111122 
NERRS,ioos:station:NOAA.NERRS:gndblwq:1,2014-02-01T05:00:00Z,30.3571,-88.4629,0.64,26.8,1111122 
NERRS,ioos:station:NOAA.NERRS:gndblwq:1,2014-02-01T06:00:00Z,30.3571,-88.4629,0.58,26.7,1111122 
NERRS,ioos:station:NOAA.NERRS:gndblwq:1,2014-02-01T07:00:00Z,30.3571,-88.4629,0.54,25.7,1111122 
NERRS,ioos:station:NOAA.NERRS:gndblwq:1,2014-02-01T08:00:00Z,30.3571,-88.4629,0.51,24.9,1111122 
NERRS,ioos:station:NOAA.NERRS:gndblwq:1,2014-02-01T09:00:00Z,30.3571,-88.4629,0.46,24.5,1111122 
NERRS,ioos:station:NOAA.NERRS:gndblwq:1,2014-02-01T10:00:00Z,30.3571,-88.4629,0.38,24.1,1111122 
NERRS,ioos:station:NOAA.NERRS:gndblwq:1,2014-02-01T11:00:00Z,30.3571,-88.4629,0.28,24.6,1111122 
NERRS,ioos:station:NOAA.NERRS:gndblwq:1,2014-02-01T12:00:00Z,30.3571,-88.4629,0.2,25.0,1111122 
NERRS,ioos:station:NOAA.NERRS:gndblwq:1,2014-02-01T13:00:00Z,30.3571,-88.4629,0.17,24.0,1111122 
NERRS,ioos:station:NOAA.NERRS:gndblwq:1,2014-02-01T14:00:00Z,30.3571,-88.4629,0.18,24.1,1111122 
NERRS,ioos:station:NOAA.NERRS:gndblwq:1,2014-02-01T15:00:00Z,30.3571,-88.4629,0.23,24.5,1111122 
NERRS,ioos:station:NOAA.NERRS:gndblwq:1,2014-02-01T16:00:00Z,30.3571,-88.4629,0.27,24.5,1111122 
NERRS,ioos:station:NOAA.NERRS:gndblwq:1,2014-02-01T17:00:00Z,30.3571,-88.4629,0.28,24.9,1111122 
NERRS,ioos:station:NOAA.NERRS:gndblwq:1,2014-02-01T18:00:00Z,30.3571,-88.4629,0.28,25.3,1111122 
NERRS,ioos:station:NOAA.NERRS:gndblwq:1,2014-02-01T19:00:00Z,30.3571,-88.4629,0.31,24.6,1111122 
NERRS,ioos:station:NOAA.NERRS:gndblwq:1,2014-02-01T20:00:00Z,30.3571,-88.4629,0.33,24.8,1111122 
NERRS,ioos:station:NOAA.NERRS:gndblwq:1,2014-02-01T21:00:00Z,30.3571,-88.4629,0.35,25.0,1111122 
NERRS,ioos:station:NOAA.NERRS:gndblwq:1,2014-02-01T22:00:00Z,30.3571,-88.4629,0.35,24.8,1111122 
NERRS,ioos:station:NOAA.NERRS:gndblwq:1,2014-02-01T23:00:00Z,30.3571,-88.4629,0.35,24.8,1111122 
NERRS,ioos:station:NOAA.NERRS:gndblwq:1,2014-02-02T00:00:00Z,30.3571,-88.4629,0.37,24.8,1111122 
NERRS,ioos:station:NOAA.NERRS:gndblwq:1,2014-02-02T01:00:00Z,30.3571,-88.4629,0.41,24.9,1111122 
NERRS,ioos:station:NOAA.NERRS:gndblwq:1,2014-02-02T02:00:00Z,30.3571,-88.4629,0.48,25.0,1111122 
NERRS,ioos:station:NOAA.NERRS:gndblwq:1,2014-02-02T03:00:00Z,30.3571,-88.4629,0.56,25.3,1111122 
NERRS,ioos:station:NOAA.NERRS:gndblwq:1,2014-02-02T04:00:00Z,30.3571,-88.4629,0.59,26.0,1111122 
NERRS,ioos:station:NOAA.NERRS:gndblwq:1,2014-02-02T05:00:00Z,30.3571,-88.4629,0.61,26.0,1111122 
NERRS,ioos:station:NOAA.NERRS:gndblwq:1,2014-02-02T06:00:00Z,30.3571,-88.4629,0.59,25.9,1111122 
NERRS,ioos:station:NOAA.NERRS:gndblwq:1,2014-02-02T07:00:00Z,30.3571,-88.4629,0.56,25.8,1111122 
NERRS,ioos:station:NOAA.NERRS:gndblwq:1,2014-02-02T08:00:00Z,30.3571,-88.4629,0.57,25.6,1111122 
NERRS,ioos:station:NOAA.NERRS:gndblwq:1,2014-02-02T09:00:00Z,30.3571,-88.4629,0.54,25.6,1111122 
NERRS,ioos:station:NOAA.NERRS:gndblwq:1,2014-02-02T10:00:00Z,30.3571,-88.4629,0.47,25.6,1111122 
NERRS,ioos:station:NOAA.NERRS:gndblwq:1,2014-02-02T11:00:00Z,30.3571,-88.4629,0.38,25.6,1111122 
NERRS,ioos:station:NOAA.NERRS:gndblwq:1,2014-02-02T12:00:00Z,30.3571,-88.4629,0.32,25.3,1111122 
NERRS,ioos:station:NOAA.NERRS:gndblwq:1,2014-02-02T13:00:00Z,30.3571,-88.4629,0.29,25.2,1111122 
NERRS,ioos:station:NOAA.NERRS:gndblwq:1,2014-02-02T14:00:00Z,30.3571,-88.4629,0.31,24.7,1111122 
NERRS,ioos:station:NOAA.NERRS:gndblwq:1,2014-02-02T15:00:00Z,30.3571,-88.4629,0.36,24.9,1111122 
NERRS,ioos:station:NOAA.NERRS:gndblwq:1,2014-02-02T16:00:00Z,30.3571,-88.4629,0.39,25.3,1111122 
NERRS,ioos:station:NOAA.NERRS:gndblwq:1,2014-02-02T17:00:00Z,30.3571,-88.4629,0.4,25.0,1111122 
NERRS,ioos:station:NOAA.NERRS:gndblwq:1,2014-02-02T18:00:00Z,30.3571,-88.4629,0.4,24.9,1111122 
NERRS,ioos:station:NOAA.NERRS:gndblwq:1,2014-02-02T19:00:00Z,30.3571,-88.4629,0.41,24.9,1111122 
NERRS,ioos:station:NOAA.NERRS:gndblwq:1,2014-02-02T20:00:00Z,30.3571,-88.4629,0.42,25.0,1111122 
NERRS,ioos:station:NOAA.NERRS:gndblwq:1,2014-02-02T21:00:00Z,30.3571,-88.4629,0.45,25.0,1111122 
NERRS,ioos:station:NOAA.NERRS:gndblwq:1,2014-02-02T22:00:00Z,30.3571,-88.4629,0.46,25.3,1111122 
NERRS,ioos:station:NOAA.NERRS:gndblwq:1,2014-02-02T23:00:00Z,30.3571,-88.4629,0.45,25.1,1111122 
NERRS,ioos:station:NOAA.NERRS:gndblwq:1,2014-02-03T00:00:00Z,30.3571,-88.4629,0.4,25.1,1111122 
NERRS,ioos:station:NOAA.NERRS:gndblwq:1,2014-02-03T01:00:00Z,30.3571,-88.4629,0.4,25.0,1111122 
NERRS,ioos:station:NOAA.NERRS:gndblwq:1,2014-02-03T02:00:00Z,30.3571,-88.4629,0.43,25.0,1111122 
NERRS,ioos:station:NOAA.NERRS:gndblwq:1,2014-02-03T03:00:00Z,30.3571,-88.4629,0.5,25.1,1111122 
NERRS,ioos:station:NOAA.NERRS:gndblwq:1,2014-02-03T04:00:00Z,30.3571,-88.4629,0.57,25.4,1111122 
NERRS,ioos:station:NOAA.NERRS:gndblwq:1,2014-02-03T05:00:00Z,30.3571,-88.4629,0.59,25.6,1111122 
NERRS,ioos:station:NOAA.NERRS:gndblwq:1,2014-02-03T06:00:00Z,30.3571,-88.4629,0.57,25.4,1111122 
NERRS,ioos:station:NOAA.NERRS:gndblwq:1,2014-02-03T07:00:00Z,30.3571,-88.4629,0.51,25.0,1111122 
NERRS,ioos:station:NOAA.NERRS:gndblwq:1,2014-02-03T08:00:00Z,30.3571,-88.4629,0.48,25.4,1111122 
NERRS,ioos:station:NOAA.NERRS:gndblwq:1,2014-02-03T09:00:00Z,30.3571,-88.4629,0.5,25.1,1111122 
NERRS,ioos:station:NOAA.NERRS:gndblwq:1,2014-02-03T10:00:00Z,30.3571,-88.4629,0.5,25.2,1111122 
NERRS,ioos:station:NOAA.NERRS:gndblwq:1,2014-02-03T11:00:00Z,30.3571,-88.4629,0.45,25.2,1111122 
NERRS,ioos:station:NOAA.NERRS:gndblwq:1,2014-02-03T12:00:00Z,30.3571,-88.4629,0.36,25.0,1111122 
NERRS,ioos:station:NOAA.NERRS:gndblwq:1,2014-02-03T13:00:00Z,30.3571,-88.4629,0.27,24.8,1111122 
NERRS,ioos:station:NOAA.NERRS:gndblwq:1,2014-02-03T14:00:00Z,30.3571,-88.4629,0.21,24.9,1111122 
NERRS,ioos:station:NOAA.NERRS:gndblwq:1,2014-02-03T15:00:00Z,30.3571,-88.4629,0.22,24.7,1111122 
NERRS,ioos:station:NOAA.NERRS:gndblwq:1,2014-02-03T16:00:00Z,30.3571,-88.4629,0.24,24.4,1111122 
NERRS,ioos:station:NOAA.NERRS:gndblwq:1,2014-02-03T17:00:00Z,30.3571,-88.4629,0.27,24.5,1111122 
NERRS,ioos:station:NOAA.NERRS:gndblwq:1,2014-02-03T18:00:00Z,30.3571,-88.4629,0.31,24.5,1111122 
NERRS,ioos:station:NOAA.NERRS:gndblwq:1,2014-02-03T19:00:00Z,30.3571,-88.4629,0.33,24.6,1111122 
NERRS,ioos:station:NOAA.NERRS:gndblwq:1,2014-02-03T20:00:00Z,30.3571,-88.4629,0.37,24.6,1111122 
NERRS,ioos:station:NOAA.NERRS:gndblwq:1,2014-02-03T21:00:00Z,30.3571,-88.4629,0.4,24.7,1111122 
NERRS,ioos:station:NOAA.NERRS:gndblwq:1,2014-02-03T23:00:00Z,30.3571,-88.4629,0.32,24.6,1111122 
NERRS,ioos:station:NOAA.NERRS:gndblwq:1,2014-02-04T00:00:00Z,30.3571,-88.4629,0.27,24.7,1111122 
NERRS,ioos:station:NOAA.NERRS:gndblwq:1,2014-02-04T01:00:00Z,30.3571,-88.4629,0.23,24.6,1111122 
NERRS,ioos:station:NOAA.NERRS:gndblwq:1,2014-02-04T02:00:00Z,30.3571,-88.4629,0.23,24.7,1111122 
NERRS,ioos:station:NOAA.NERRS:gndblwq:1,2014-02-04T03:00:00Z,30.3571,-88.4629,0.27,24.5,1111122 
NERRS,ioos:station:NOAA.NERRS:gndblwq:1,2014-02-04T04:00:00Z,30.3571,-88.4629,0.32,24.6,1111122 
NERRS,ioos:station:NOAA.NERRS:gndblwq:1,2014-02-04T05:00:00Z,30.3571,-88.4629,0.34,24.6,1111122 
NERRS,ioos:station:NOAA.NERRS:gndblwq:1,2014-02-04T07:00:00Z,30.3571,-88.4629,0.37,24.7,1111122 
NERRS,ioos:station:NOAA.NERRS:gndblwq:1,2014-02-14T14:00:00Z,30.3571,-88.4629,0.11,19.3,1111122 
NERRS,ioos:station:NOAA.NERRS:gndblwq:1,2014-02-14T15:00:00Z,30.3571,-88.4629,0.15,19.7,1111122 
NERRS,ioos:station:NOAA.NERRS:gndblwq:1,2014-02-14T16:00:00Z,30.3571,-88.4629,0.19,19.9,1111122 
NERRS,ioos:station:NOAA.NERRS:gndblwq:1,2014-02-14T17:00:00Z,30.3571,-88.4629,0.23,20.0,1111122 
NERRS,ioos:station:NOAA.NERRS:gndblwq:1,2014-02-14T18:00:00Z,30.3571,-88.4629,0.28,19.6,1111122 
NERRS,ioos:station:NOAA.NERRS:gndblwq:1,2014-02-14T19:00:00Z,30.3571,-88.4629,0.31,20.0,1111122 
NERRS,ioos:station:NOAA.NERRS:gndblwq:1,2014-02-14T20:00:00Z,30.3571,-88.4629,0.29,19.0,1111122 
NERRS,ioos:station:NOAA.NERRS:gndblwq:1,2014-02-14T21:00:00Z,30.3571,-88.4629,0.27,19.5,1111122 
NERRS,ioos:station:NOAA.NERRS:gndblwq:1,2014-02-14T22:00:00Z,30.3571,-88.4629,0.27,20.0,1111122 
NERRS,ioos:station:NOAA.NERRS:gndblwq:1,2014-02-14T23:00:00Z,30.3571,-88.4629,0.29,20.2,1111122 
NERRS,ioos:station:NOAA.NERRS:gndblwq:1,2014-02-15T00:00:00Z,30.3571,-88.4629,0.34,21.2,1111122 
NERRS,ioos:station:NOAA.NERRS:gndblwq:1,2014-02-15T01:00:00Z,30.3571,-88.4629,0.44,22.5,1111122 
NERRS,ioos:station:NOAA.NERRS:gndblwq:1,2014-02-15T02:00:00Z,30.3571,-88.4629,0.52,23.7,1111122 
NERRS,ioos:station:NOAA.NERRS:gndblwq:1,2014-02-15T03:00:00Z,30.3571,-88.4629,0.55,23.4,1111122 
NERRS,ioos:station:NOAA.NERRS:gndblwq:1,2014-02-15T04:00:00Z,30.3571,-88.4629,0.52,22.1,1111122 
NERRS,ioos:station:NOAA.NERRS:gndblwq:1,2014-02-15T05:00:00Z,30.3571,-88.4629,0.47,21.7,1111122 
NERRS,ioos:station:NOAA.NERRS:gndblwq:1,2014-02-15T06:00:00Z,30.3571,-88.4629,0.47,24.2,1111122 
NERRS,ioos:station:NOAA.NERRS:gndblwq:1,2014-02-15T07:00:00Z,30.3571,-88.4629,0.43,23.1,1111122 
NERRS,ioos:station:NOAA.NERRS:gndblwq:1,2014-02-15T08:00:00Z,30.3571,-88.4629,0.37,20.3,1111122 
NERRS,ioos:station:NOAA.NERRS:gndblwq:1,2014-02-15T09:00:00Z,30.3571,-88.4629,0.27,20.6,1111122 
NERRS,ioos:station:NOAA.NERRS:gndblwq:1,2014-02-15T14:00:00Z,30.3571,-88.4629,0.08,20.2,1111122 
NERRS,ioos:station:NOAA.NERRS:gndblwq:1,2014-02-15T15:00:00Z,30.3571,-88.4629,0.19,21.0,1111122 
NERRS,ioos:station:NOAA.NERRS:gndblwq:1,2014-02-15T16:00:00Z,30.3571,-88.4629,0.3,20.9,1111122 
NERRS,ioos:station:NOAA.NERRS:gndblwq:1,2014-02-15T17:00:00Z,30.3571,-88.4629,0.35,21.1,1111122 
NERRS,ioos:station:NOAA.NERRS:gndblwq:1,2014-02-15T18:00:00Z,30.3571,-88.4629,0.36,21.2,1111122 
NERRS,ioos:station:NOAA.NERRS:gndblwq:1,2014-02-15T19:00:00Z,30.3571,-88.4629,0.33,21.3,1111122 
NERRS,ioos:station:NOAA.NERRS:gndblwq:1,2014-02-15T20:00:00Z,30.3571,-88.4629,0.35,21.1,1111122 
NERRS,ioos:station:NOAA.NERRS:gndblwq:1,2014-02-15T21:00:00Z,30.3571,-88.4629,0.34,21.2,1111122 
NERRS,ioos:station:NOAA.NERRS:gndblwq:1,2014-02-15T22:00:00Z,30.3571,-88.4629,0.34,21.3,1111122 
NERRS,ioos:station:NOAA.NERRS:gndblwq:1,2014-02-15T23:00:00Z,30.3571,-88.4629,0.35,21.2,1111122 
NERRS,ioos:station:NOAA.NERRS:gndblwq:1,2014-02-16T00:00:00Z,30.3571,-88.4629,0.4,21.7,1111122 
NERRS,ioos:station:NOAA.NERRS:gndblwq:1,2014-02-16T01:00:00Z,30.3571,-88.4629,0.44,23.0,1111122 
NERRS,ioos:station:NOAA.NERRS:gndblwq:1,2014-02-16T02:00:00Z,30.3571,-88.4629,0.49,23.6,1111122 
NERRS,ioos:station:NOAA.NERRS:gndblwq:1,2014-02-16T03:00:00Z,30.3571,-88.4629,0.49,22.4,1111122 
NERRS,ioos:station:NOAA.NERRS:gndblwq:1,2014-02-16T04:00:00Z,30.3571,-88.4629,0.47,21.1,1111122 
NERRS,ioos:station:NOAA.NERRS:gndblwq:1,2014-02-16T05:00:00Z,30.3571,-88.4629,0.44,21.7,1111122 
NERRS,ioos:station:NOAA.NERRS:gndblwq:1,2014-02-16T06:00:00Z,30.3571,-88.4629,0.41,21.5,1111122 
NERRS,ioos:station:NOAA.NERRS:gndblwq:1,2014-02-16T07:00:00Z,30.3571,-88.4629,0.39,21.2,1111122 
NERRS,ioos:station:NOAA.NERRS:gndblwq:1,2014-02-16T08:00:00Z,30.3571,-88.4629,0.38,21.5,1111122 
NERRS,ioos:station:NOAA.NERRS:gndblwq:1,2014-02-16T09:00:00Z,30.3571,-88.4629,0.33,20.8,1111122 
NERRS,ioos:station:NOAA.NERRS:gndblwq:1,2014-02-16T11:00:00Z,30.3571,-88.4629,0.18,20.9,1111122 
NERRS,ioos:station:NOAA.NERRS:gndblwq:1,2014-02-16T12:00:00Z,30.3571,-88.4629,0.14,20.1,1111122 
NERRS,ioos:station:NOAA.NERRS:gndblwq:1,2014-02-16T13:00:00Z,30.3571,-88.4629,0.15,20.0,1111122 
NERRS,ioos:station:NOAA.NERRS:gndblwq:1,2014-02-16T14:00:00Z,30.3571,-88.4629,0.2,20.2,1111122 
NERRS,ioos:station:NOAA.NERRS:gndblwq:1,2014-02-16T15:00:00Z,30.3571,-88.4629,0.24,20.7,1111122 
NERRS,ioos:station:NOAA.NERRS:gndblwq:1,2014-02-16T16:00:00Z,30.3571,-88.4629,0.28,20.9,1111122 
NERRS,ioos:station:NOAA.NERRS:gndblwq:1,2014-02-16T17:00:00Z,30.3571,-88.4629,0.3,21.2,1111122 
NERRS,ioos:station:NOAA.NERRS:gndblwq:1,2014-02-16T18:00:00Z,30.3571,-88.4629,0.31,21.2,1111122 
NERRS,ioos:station:NOAA.NERRS:gndblwq:1,2014-02-16T19:00:00Z,30.3571,-88.4629,0.32,21.3,1111122 
NERRS,ioos:station:NOAA.NERRS:gndblwq:1,2014-02-16T20:00:00Z,30.3571,-88.4629,0.35,21.5,1111122 
NERRS,ioos:station:NOAA.NERRS:gndblwq:1,2014-02-16T21:00:00Z,30.3571,-88.4629,0.38,21.4,1111122 
NERRS,ioos:station:NOAA.NERRS:gndblwq:1,2014-02-16T22:00:00Z,30.3571,-88.4629,0.35,21.4,1111122 
NERRS,ioos:station:NOAA.NERRS:gndblwq:1,2014-02-16T23:00:00Z,30.3571,-88.4629,0.33,22.2,1111122 
NERRS,ioos:station:NOAA.NERRS:gndblwq:1,2014-02-17T00:00:00Z,30.3571,-88.4629,0.34,21.9,1111122 
NERRS,ioos:station:NOAA.NERRS:gndblwq:1,2014-02-17T01:00:00Z,30.3571,-88.4629,0.4,21.8,1111122 
NERRS,ioos:station:NOAA.NERRS:gndblwq:1,2014-02-17T02:00:00Z,30.3571,-88.4629,0.46,22.1,1111122 
NERRS,ioos:station:NOAA.NERRS:gndblwq:1,2014-02-17T03:00:00Z,30.3571,-88.4629,0.52,22.8,1111122 
NERRS,ioos:station:NOAA.NERRS:gndblwq:1,2014-02-17T04:00:00Z,30.3571,-88.4629,0.54,23.3,1111122 
NERRS,ioos:station:NOAA.NERRS:gndblwq:1,2014-02-17T05:00:00Z,30.3571,-88.4629,0.51,22.0,1111122 
NERRS,ioos:station:NOAA.NERRS:gndblwq:1,2014-02-17T06:00:00Z,30.3571,-88.4629,0.47,22.4,1111122 
NERRS,ioos:station:NOAA.NERRS:gndblwq:1,2014-02-17T07:00:00Z,30.3571,-88.4629,0.47,22.1,1111122 
NERRS,ioos:station:NOAA.NERRS:gndblwq:1,2014-02-17T08:00:00Z,30.3571,-88.4629,0.48,22.1,1111122 
NERRS,ioos:station:NOAA.NERRS:gndblwq:1,2014-02-17T09:00:00Z,30.3571,-88.4629,0.46,21.7,1111122 
NERRS,ioos:station:NOAA.NERRS:gndblwq:1,2014-02-17T10:00:00Z,30.3571,-88.4629,0.39,22.0,1111122 
NERRS,ioos:station:NOAA.NERRS:gndblwq:1,2014-02-17T11:00:00Z,30.3571,-88.4629,0.31,21.5,1111122 
NERRS,ioos:station:NOAA.NERRS:gndblwq:1,2014-02-17T12:00:00Z,30.3571,-88.4629,0.26,22.0,1111122 
NERRS,ioos:station:NOAA.NERRS:gndblwq:1,2014-02-17T13:00:00Z,30.3571,-88.4629,0.24,22.1,1111122 
NERRS,ioos:station:NOAA.NERRS:gndblwq:1,2014-02-17T14:00:00Z,30.3571,-88.4629,0.31,22.0,1111122 
NERRS,ioos:station:NOAA.NERRS:gndblwq:1,2014-02-17T15:00:00Z,30.3571,-88.4629,0.36,21.9,1111122 
NERRS,ioos:station:NOAA.NERRS:gndblwq:1,2014-02-17T16:00:00Z,30.3571,-88.4629,0.41,22.2,1111122 
NERRS,ioos:station:NOAA.NERRS:gndblwq:1,2014-02-17T17:00:00Z,30.3571,-88.4629,0.43,22.3,1111122 
NERRS,ioos:station:NOAA.NERRS:gndblwq:1,2014-02-17T18:00:00Z,30.3571,-88.4629,0.42,22.0,1111122 
NERRS,ioos:station:NOAA.NERRS:gndblwq:1,2014-02-17T19:00:00Z,30.3571,-88.4629,0.38,22.0,1111122 
NERRS,ioos:station:NOAA.NERRS:gndblwq:1,2014-02-17T20:00:00Z,30.3571,-88.4629,0.41,22.2,1111122 
NERRS,ioos:station:NOAA.NERRS:gndblwq:1,2014-02-17T21:00:00Z,30.3571,-88.4629,0.43,22.1,1111122 
NERRS,ioos:station:NOAA.NERRS:gndblwq:1,2014-02-17T22:00:00Z,30.3571,-88.4629,0.39,22.0,1111122 
NERRS,ioos:station:NOAA.NERRS:gndblwq:1,2014-02-17T23:00:00Z,30.3571,-88.4629,0.35,21.9,1111122 
NERRS,ioos:station:NOAA.NERRS:gndblwq:1,2014-02-18T00:00:00Z,30.3571,-88.4629,0.32,22.0,1111122 
NERRS,ioos:station:NOAA.NERRS:gndblwq:1,2014-02-18T01:00:00Z,30.3571,-88.4629,0.33,22.2,1111122 
NERRS,ioos:station:NOAA.NERRS:gndblwq:1,2014-02-18T20:00:00Z,30.3571,-88.4629,0.48,22.2,1111122 
NERRS,ioos:station:NOAA.NERRS:gndblwq:1,2014-02-19T14:00:00Z,30.3571,-88.4629,0.38,22.3,1111122 
NERRS,ioos:station:NOAA.NERRS:gndblwq:1,2014-02-19T15:00:00Z,30.3571,-88.4629,0.45,22.1,1111122 
NERRS,ioos:station:NOAA.NERRS:gndblwq:1,2014-02-19T16:00:00Z,30.3571,-88.4629,0.51,22.0,1111122 
NERRS,ioos:station:NOAA.NERRS:gndblwq:1,2014-02-19T17:00:00Z,30.3571,-88.4629,0.54,21.9,1111122 
NERRS,ioos:station:NOAA.NERRS:gndblwq:1,2014-02-19T18:00:00Z,30.3571,-88.4629,0.55,21.6,1111122 
NERRS,ioos:station:NOAA.NERRS:gndblwq:1,2014-02-19T19:00:00Z,30.3571,-88.4629,0.55,22.1,1111122 
NERRS,ioos:station:NOAA.NERRS:gndblwq:1,2014-02-19T19:45:00Z,30.3571,-88.4629,0.52,22.1,1111122 
NERRS,ioos:station:NOAA.NERRS:gndblwq:1,2014-02-19T21:00:00Z,30.3571,-88.4629,0.52,22.0,1111122 
NERRS,ioos:station:NOAA.NERRS:gndblwq:1,2014-02-19T22:00:00Z,30.3571,-88.4629,0.53,21.6,1111122 
NERRS,ioos:station:NOAA.NERRS:gndblwq:1,2014-02-19T23:00:00Z,30.3571,-88.4629,0.51,22.0,1111122 
NERRS,ioos:station:NOAA.NERRS:gndblwq:1,2014-02-20T00:00:00Z,30.3571,-88.4629,0.45,22.1,1111122 
NERRS,ioos:station:NOAA.NERRS:gndblwq:1,2014-02-20T01:00:00Z,30.3571,-88.4629,0.39,22.2,1111122 
NERRS,ioos:station:NOAA.NERRS:gndblwq:1,2014-02-20T02:00:00Z,30.3571,-88.4629,0.39,21.8,1111122 
NERRS,ioos:station:NOAA.NERRS:gndblwq:1,2014-02-20T03:00:00Z,30.3571,-88.4629,0.4,22.0,1111122 
NERRS,ioos:station:NOAA.NERRS:gndblwq:1,2014-02-20T05:00:00Z,30.3571,-88.4629,0.47,21.7,1111122 
NERRS,ioos:station:NOAA.NERRS:gndblwq:1,2014-02-20T06:00:00Z,30.3571,-88.4629,0.44,20.3,1111122 
NERRS,ioos:station:NOAA.NERRS:gndblwq:1,2014-02-20T07:00:00Z,30.3571,-88.4629,0.41,21.0,1111122 
NERRS,ioos:station:NOAA.NERRS:gndblwq:1,2014-02-20T08:00:00Z,30.3571,-88.4629,0.42,21.2,1111122 
NERRS,ioos:station:NOAA.NERRS:gndblwq:1,2014-02-20T09:00:00Z,30.3571,-88.4629,0.46,20.9,1111122 
NERRS,ioos:station:NOAA.NERRS:gndblwq:1,2014-02-20T10:00:00Z,30.3571,-88.4629,0.48,21.2,1111122 
NERRS,ioos:station:NOAA.NERRS:gndblwq:1,2014-02-20T11:00:00Z,30.3571,-88.4629,0.47,20.6,1111122 
NERRS,ioos:station:NOAA.NERRS:gndblwq:1,2014-02-20T12:00:00Z,30.3571,-88.4629,0.47,20.6,1111122 
NERRS,ioos:station:NOAA.NERRS:gndblwq:1,2014-02-20T13:00:00Z,30.3571,-88.4629,0.48,20.9,1111122 
NERRS,ioos:station:NOAA.NERRS:gndblwq:1,2014-02-20T14:00:00Z,30.3571,-88.4629,0.51,20.9,1111122 
NERRS,ioos:station:NOAA.NERRS:gndblwq:1,2014-02-20T15:00:00Z,30.3571,-88.4629,0.55,20.5,1111122 
NERRS,ioos:station:NOAA.NERRS:gndblwq:1,2014-02-20T16:00:00Z,30.3571,-88.4629,0.59,20.3,1111122 
NERRS,ioos:station:NOAA.NERRS:gndblwq:1,2014-02-20T17:00:00Z,30.3571,-88.4629,0.63,19.1,1111122 
NERRS,ioos:station:NOAA.NERRS:gndblwq:1,2014-02-20T18:00:00Z,30.3571,-88.4629,0.66,19.8,1111122 
NERRS,ioos:station:NOAA.NERRS:gndblwq:1,2014-02-20T19:00:00Z,30.3571,-88.4629,0.67,19.4,1111122 
NERRS,ioos:station:NOAA.NERRS:gndblwq:1,2014-02-20T20:00:00Z,30.3571,-88.4629,0.67,19.3,1111122 
NERRS,ioos:station:NOAA.NERRS:gndblwq:1,2014-02-20T21:00:00Z,30.3571,-88.4629,0.66,19.4,1111122 
NERRS,ioos:station:NOAA.NERRS:gndblwq:1,2014-02-20T22:00:00Z,30.3571,-88.4629,0.63,19.5,1111122 
NERRS,ioos:station:NOAA.NERRS:gndblwq:1,2014-02-20T23:00:00Z,30.3571,-88.4629,0.58,20.2,1111122 
NERRS,ioos:station:NOAA.NERRS:gndblwq:1,2014-02-21T00:00:00Z,30.3571,-88.4629,0.54,20.6,1111122 
NERRS,ioos:station:NOAA.NERRS:gndblwq:1,2014-02-21T01:00:00Z,30.3571,-88.4629,0.5,20.7,1111122 
NERRS,ioos:station:NOAA.NERRS:gndblwq:1,2014-02-21T02:00:00Z,30.3571,-88.4629,0.46,20.5,1111122 
NERRS,ioos:station:NOAA.NERRS:gndblwq:1,2014-02-21T03:00:00Z,30.3571,-88.4629,0.44,20.3,1111122 
NERRS,ioos:station:NOAA.NERRS:gndblwq:1,2014-02-21T04:00:00Z,30.3571,-88.4629,0.43,20.3,1111122 
NERRS,ioos:station:NOAA.NERRS:gndblwq:1,2014-02-21T05:00:00Z,30.3571,-88.4629,0.41,20.6,1111122 
NERRS,ioos:station:NOAA.NERRS:gndblwq:1,2014-02-21T06:00:00Z,30.3571,-88.4629,0.41,20.6,1111122 
NERRS,ioos:station:NOAA.NERRS:gndblwq:1,2014-02-21T07:00:00Z,30.3571,-88.4629,0.44,20.6,1111122 
NERRS,ioos:station:NOAA.NERRS:gndblwq:1,2014-02-21T08:00:00Z,30.3571,-88.4629,0.47,20.6,1111122 
NERRS,ioos:station:NOAA.NERRS:gndblwq:1,2014-02-21T09:00:00Z,30.3571,-88.4629,0.46,20.3,1111122 
NERRS,ioos:station:NOAA.NERRS:gndblwq:1,2014-02-21T10:00:00Z,30.3571,-88.4629,0.39,19.0,1111122 
NERRS,ioos:station:NOAA.NERRS:gndblwq:1,2014-02-21T11:00:00Z,30.3571,-88.4629,0.29,19.2,1111122 
NERRS,ioos:station:NOAA.NERRS:gndblwq:1,2014-02-21T12:00:00Z,30.3571,-88.4629,0.14,14.8,1111122 
NERRS,ioos:station:NOAA.NERRS:gndblwq:1,2014-02-21T13:00:00Z,30.3571,-88.4629,0.08,15.8,1111122 
NERRS,ioos:station:NOAA.NERRS:gndblwq:1,2014-02-21T14:00:00Z,30.3571,-88.4629,0.04,12.1,1111122 
NERRS,ioos:station:NOAA.NERRS:gndblwq:1,2014-02-21T15:00:00Z,30.3571,-88.4629,0.07,17.8,1111122 
NERRS,ioos:station:NOAA.NERRS:gndblwq:1,2014-02-21T16:00:00Z,30.3571,-88.4629,0.24,18.7,1111122 
NERRS,ioos:station:NOAA.NERRS:gndblwq:1,2014-02-21T17:00:00Z,30.3571,-88.4629,0.46,17.9,1111122 
NERRS,ioos:station:NOAA.NERRS:gndblwq:1,2014-02-21T18:00:00Z,30.3571,-88.4629,0.62,19.1,1111122 
NERRS,ioos:station:NOAA.NERRS:gndblwq:1,2014-02-21T19:00:00Z,30.3571,-88.4629,0.68,19.4,1111122 
NERRS,ioos:station:NOAA.NERRS:gndblwq:1,2014-02-21T20:00:00Z,30.3571,-88.4629,0.7,19.4,1111122 
NERRS,ioos:station:NOAA.NERRS:gndblwq:1,2014-02-21T21:00:00Z,30.3571,-88.4629,0.73,19.3,1111122 
NERRS,ioos:station:NOAA.NERRS:gndblwq:1,2014-02-21T22:00:00Z,30.3571,-88.4629,0.69,19.1,1111122 
NERRS,ioos:station:NOAA.NERRS:gndblwq:1,2014-02-21T23:00:00Z,30.3571,-88.4629,0.62,19.1,1111122 
NERRS,ioos:station:NOAA.NERRS:gndblwq:1,2014-02-22T00:00:00Z,30.3571,-88.4629,0.59,18.7,1111122 
NERRS,ioos:station:NOAA.NERRS:gndblwq:1,2014-02-22T01:00:00Z,30.3571,-88.4629,0.56,18.4,1111122 
NERRS,ioos:station:NOAA.NERRS:gndblwq:1,2014-02-22T02:00:00Z,30.3571,-88.4629,0.5,18.3,1111122 
NERRS,ioos:station:NOAA.NERRS:gndblwq:1,2014-02-22T03:00:00Z,30.3571,-88.4629,0.42,18.8,1111122 
NERRS,ioos:station:NOAA.NERRS:gndblwq:1,2014-02-22T04:00:00Z,30.3571,-88.4629,0.35,17.4,1111122 
NERRS,ioos:station:NOAA.NERRS:gndblwq:1,2014-02-22T05:00:00Z,30.3571,-88.4629,0.28,16.9,1111122 
NERRS,ioos:station:NOAA.NERRS:gndblwq:1,2014-02-22T06:00:00Z,30.3571,-88.4629,0.24,16.7,1111122 
NERRS,ioos:station:NOAA.NERRS:gndblwq:1,2014-02-22T07:00:00Z,30.3571,-88.4629,0.2,16.6,1111122 
NERRS,ioos:station:NOAA.NERRS:gndblwq:1,2014-02-22T08:00:00Z,30.3571,-88.4629,0.18,16.0,1111122 
NERRS,ioos:station:NOAA.NERRS:gndblwq:1,2014-02-22T09:00:00Z,30.3571,-88.4629,0.17,16.1,1111122 
NERRS,ioos:station:NOAA.NERRS:gndblwq:1,2014-02-22T10:00:00Z,30.3571,-88.4629,0.2,15.8,1111122 
NERRS,ioos:station:NOAA.NERRS:gndblwq:1,2014-02-22T11:00:00Z,30.3571,-88.4629,0.25,16.3,1111122 
NERRS,ioos:station:NOAA.NERRS:gndblwq:1,2014-02-22T12:00:00Z,30.3571,-88.4629,0.31,16.4,1111122 
NERRS,ioos:station:NOAA.NERRS:gndblwq:1,2014-02-22T13:00:00Z,30.3571,-88.4629,0.36,17.1,1111122 
NERRS,ioos:station:NOAA.NERRS:gndblwq:1,2014-02-22T14:00:00Z,30.3571,-88.4629,0.4,17.9,1111122 
NERRS,ioos:station:NOAA.NERRS:gndblwq:1,2014-02-22T15:00:00Z,30.3571,-88.4629,0.47,17.6,1111122 
NERRS,ioos:station:NOAA.NERRS:gndblwq:1,2014-02-22T16:00:00Z,30.3571,-88.4629,0.54,17.6,1111122 
NERRS,ioos:station:NOAA.NERRS:gndblwq:1,2014-02-22T17:00:00Z,30.3571,-88.4629,0.6,17.6,1111122 
NERRS,ioos:station:NOAA.NERRS:gndblwq:1,2014-02-22T18:00:00Z,30.3571,-88.4629,0.65,17.7,1111122 
NERRS,ioos:station:NOAA.NERRS:gndblwq:1,2014-02-22T19:00:00Z,30.3571,-88.4629,0.7,17.7,1111122 
NERRS,ioos:station:NOAA.NERRS:gndblwq:1,2014-02-22T20:00:00Z,30.3571,-88.4629,0.74,18.2,1111122 
NERRS,ioos:station:NOAA.NERRS:gndblwq:1,2014-02-22T21:00:00Z,30.3571,-88.4629,0.77,18.6,1111122 
NERRS,ioos:station:NOAA.NERRS:gndblwq:1,2014-02-22T22:00:00Z,30.3571,-88.4629,0.77,18.6,1111122 
NERRS,ioos:station:NOAA.NERRS:gndblwq:1,2014-02-22T23:00:00Z,30.3571,-88.4629,0.73,18.3,1111122 
NERRS,ioos:station:NOAA.NERRS:gndblwq:1,2014-02-23T00:00:00Z,30.3571,-88.4629,0.67,18.3,1111122 
NERRS,ioos:station:NOAA.NERRS:gndblwq:1,2014-02-23T01:00:00Z,30.3571,-88.4629,0.63,18.4,1111122 
NERRS,ioos:station:NOAA.NERRS:gndblwq:1,2014-02-23T02:00:00Z,30.3571,-88.4629,0.57,18.0,1111122 
NERRS,ioos:station:NOAA.NERRS:gndblwq:1,2014-02-23T03:00:00Z,30.3571,-88.4629,0.49,18.1,1111122 
NERRS,ioos:station:NOAA.NERRS:gndblwq:1,2014-02-23T04:00:00Z,30.3571,-88.4629,0.42,17.9,1111122 
NERRS,ioos:station:NOAA.NERRS:gndblwq:1,2014-02-23T05:00:00Z,30.3571,-88.4629,0.34,17.9,1111122 
NERRS,ioos:station:NOAA.NERRS:gndblwq:1,2014-02-23T06:00:00Z,30.3571,-88.4629,0.27,18.0,1111122 